[[{"header":{"parameterUnit":"m.s-1","parameterCategory":1,"la1":30.2991,"la2":30.254,"lo1":-89.0895,"lo2":-89.0444,"dy":0.0017,"dx":0.0017,"nx":28,"ny":28,"refTime":"2024-07-09T09:00:00:Z","depth":0,"parameterNumber":2,"parameterNumberName":"U-component_of_WINDS"},"data":[0,0,0,0,0,0,0,0,0,0,0,0,0,0,0,0,0,0,0,0,0,0,0,0,0,0,0,0,0,0,0,0,0,0,0,0,0,0,0,0,0,0,0,0,0,0,0,0,0,0,0,0,0,0,0,0,0,0,4.9183,4.9185,0,4.9353,4.9354,4.9356,4.9341,4.9339,4.9336,4.9334,4.9505,4.9512,4.9519,0,0,0,0,0,0,0,0,0,0,0,0,0,4.8843,4.8849,4.9183,4.9185,4.9188,4.9352,4.9355,4.9357,4.9342,4.9339,4.9336,4.9333,4.9503,4.9511,4.952,0,0,0,0,0,0,0,0,0,0,0,0,0,4.8999,4.8851,4.9183,4.92,4.9203,4.9352,4.9355,4.9357,4.9342,4.9339,4.9335,4.9331,4.95,4.951,4.9521,4.9663,0,0,4.9553,4.9557,0,0,0,0,0,0,0,0,4.899,4.9012,4.9195,4.9199,4.9203,4.9322,4.9297,4.946,4.9343,4.929,4.9334,4.9329,4.9447,4.9462,4.9502,4.9671,4.9678,4.9554,4.956,4.9565,4.9568,0,0,0,0,0,0,0,4.898,4.9004,4.925,4.9198,4.9203,4.9198,4.9216,4.9328,4.9388,4.9294,4.9293,4.9314,4.9449,4.9492,4.9506,4.9681,4.9553,4.9563,4.9569,4.9573,4.997,4.9974,0,0,0,0,0,0,4.8965,4.8996,4.9245,4.9255,4.9085,4.9207,4.9227,4.9288,4.9387,4.9398,4.9317,4.9312,4.9476,4.9494,4.9512,4.9681,4.9564,4.9574,4.958,4.9965,4.997,4.9975,0,0,0,0,0,0,4.8958,4.8988,4.9238,4.9125,4.9157,4.9217,4.9285,4.9293,4.9336,4.9404,4.9414,4.935,4.9474,4.9497,4.9624,4.9687,4.9579,4.9589,4.996,4.9967,4.9973,5.0022,0,0,0,0,0,0,4.8948,4.8985,4.9041,4.9127,4.9163,4.9349,4.9289,4.9299,4.9355,4.935,4.9438,4.9449,4.9473,4.9609,4.9635,4.9699,4.9597,4.9955,4.9963,4.9971,5.0015,5.003,5.0042,0,0,0,0,0,4.8936,4.9049,4.9044,4.9074,4.9234,4.9353,4.9373,4.9398,4.936,4.9415,4.9458,4.9446,4.9676,4.9622,4.9651,4.972,4.9951,4.9961,4.997,5.0009,5.0027,5.0041,0,0,0,0,0,0,4.8969,4.9061,4.9056,4.92,4.9269,4.935,4.9421,4.9417,4.9497,4.949,4.9517,4.9537,4.9664,4.9705,4.9643,4.986,4.9808,4.9824,4.9828,4.9845,4.9858,4.9844,4.9605,0,0,0,0,0,4.8993,4.9083,4.9158,4.9277,4.9312,4.9361,4.9413,4.9427,4.9498,4.9527,4.958,4.9649,4.9736,4.9794,4.9879,5.0022,5.0038,5.0083,5.0096,5.0107,5.0119,5.0193,5.0213,5.0006,5.0006,5.0006,0,0,4.9044,4.9105,4.916,4.9286,4.934,4.943,4.9385,4.9484,4.955,4.9542,4.9664,4.9705,4.9784,4.9919,4.9981,4.9957,5.018,5.0119,5.0127,5.0134,5.0205,5.0225,5.0242,5.0013,5.0012,5.0011,0,0,4.9181,4.9238,4.9342,4.9397,4.948,4.9511,4.9536,4.9618,4.9644,4.9767,4.9762,4.9841,4.9993,5.0048,5.0096,5.0251,5.0241,5.0278,5.0346,5.0418,5.0434,5.0448,5.0499,5.0518,5.029,5.0291,5.0291,0,4.9233,4.937,4.9395,4.9494,4.9547,4.9544,4.9648,4.97,4.9807,4.9843,4.9815,5.0002,5.0055,5.02,5.0238,5.0278,5.0305,5.0266,5.043,5.0444,5.0458,5.0507,5.0527,5.0294,5.0294,5.0293,5.0293,0,4.9427,4.9522,4.9595,4.9697,4.9759,4.986,4.9899,4.9959,4.9966,4.9999,5.0123,5.0187,5.0282,5.0318,5.0327,5.0464,5.0446,5.0424,5.0372,5.0481,5.0527,5.0546,5.0299,5.0298,5.0297,5.0296,0,0,4.9589,4.9702,4.9728,4.9773,4.9863,4.9936,5.0035,5.0128,5.0177,5.025,5.0331,5.0458,5.0437,5.0492,5.0507,5.0571,5.0683,5.054,5.0542,5.0561,5.0833,5.0846,5.0868,5.0679,5.0683,5.0686,5.0825,0,4.9732,4.9908,4.9932,5.0087,5.0172,5.0169,5.0255,5.0318,5.0352,5.0428,5.0465,5.0552,5.0521,5.0552,5.0616,5.0656,5.0738,5.0647,5.0752,5.0755,5.0728,5.0893,5.0908,5.1036,5.0843,5.0847,5.0849,0,4.9923,4.9999,5.0162,5.0237,5.0273,5.035,5.0435,5.0509,5.058,5.0599,5.0659,5.0665,5.0765,5.0711,5.0847,5.0784,5.0829,5.0855,5.086,5.0868,5.0806,5.0901,5.1078,5.1095,5.0878,5.0876,5.0874,0,5.0019,5.0163,5.0278,5.0317,5.0408,5.0461,5.0502,5.0569,5.0622,5.0697,5.073,5.0816,5.0862,5.0927,5.0955,5.0914,5.1088,5.1037,5.1104,5.1103,5.1138,5.1135,5.1321,5.1174,5.1173,5.1173,5.1172,0,5.0174,5.0272,5.0322,5.0392,5.0501,5.0528,5.0635,5.0673,5.0733,5.0808,5.0813,5.0883,5.0918,5.0994,5.1017,5.1123,5.1145,5.1161,5.1165,5.1159,5.1156,5.1186,5.1176,5.1178,5.1177,5.1176,5.1175,0,5.0299,5.0337,5.0461,5.0537,5.0558,5.0634,5.0698,5.0765,5.0798,5.0893,5.0917,5.0968,5.1056,5.1091,5.1201,5.1216,5.1337,5.1337,5.1313,5.1313,5.1376,5.1368,5.1584,5.1612,5.145,5.1452,5.1453,0,5.0393,5.0469,5.0552,5.0603,5.0645,5.0727,5.0781,5.081,5.0865,5.095,5.1005,5.1094,5.1166,5.1308,5.1353,5.1435,5.1434,5.1504,5.1446,5.1436,5.143,5.1424,5.1429,5.1514,5.1515,5.1517,5.1518,0,5.0555,5.057,5.0647,5.073,5.0794,5.0861,5.0926,5.0968,5.1006,5.1068,5.1158,5.1214,5.1324,5.141,5.1495,5.1535,5.1532,5.1536,5.1555,5.1547,5.1528,5.1535,5.1337,5.153,5.1529,5.1528,5.1527,5.1527,5.0665,5.073,5.0798,5.0883,5.0935,5.0995,5.106,5.11,5.1176,5.1267,5.128,5.1376,5.1441,5.1554,5.1598,5.1672,5.1653,5.1682,5.1688,5.1694,5.1696,5.152,5.1688,5.1687,5.1687,5.1687,5.1687,0,5.0823,5.0866,5.0945,5.1035,5.1101,5.1093,5.1164,5.1219,5.1303,5.1365,5.1435,5.1537,5.1621,5.1672,5.1755,5.1804,5.1804,5.1825,5.1819,5.1828,5.171,5.1683,5.1823,5.1823,5.1823,5.1823,5.1823,5.1822,5.0913,5.1021,5.1043,5.1176,5.1218,5.1312,5.1352,5.1407,5.1455,5.1569,5.1638,5.1671,5.1728,5.1815,5.189,5.1902,5.1931,5.1952,5.1963,5.1851,5.1837,5.1823,5.1798,5.1959,5.1959,5.2074,5.2075,5.2075]},{"header":{"parameterUnit":"m.s-1","parameterCategory":1,"la1":30.2991,"la2":30.254,"lo1":-89.0895,"lo2":-89.0444,"dy":0.0017,"dx":0.0017,"nx":28,"ny":28,"refTime":"2024-07-09T09:00:00:Z","depth":0,"parameterNumber":3,"parameterNumberName":"V-component_of_WINDS"},"data":[0,0,0,0,0,0,0,0,0,0,0,0,0,0,0,0,0,0,0,0,0,0,0,0,0,0,0,0,0,0,0,0,0,0,0,0,0,0,0,0,0,0,0,0,0,0,0,0,0,0,0,0,0,0,0,0,0,0,3.8992,3.8993,0,3.9065,3.9066,3.9067,3.9023,3.9021,3.9019,3.9017,3.9088,3.9092,3.9096,0,0,0,0,0,0,0,0,0,0,0,0,0,3.881,3.8814,3.8992,3.8993,3.8994,3.9065,3.9066,3.9067,3.9023,3.9021,3.9018,3.9016,3.9087,3.9092,3.9096,0,0,0,0,0,0,0,0,0,0,0,0,0,3.8887,3.8815,3.8992,3.8981,3.898,3.9065,3.9066,3.9067,3.9024,3.9021,3.9017,3.9015,3.9086,3.9091,3.9097,3.9195,0,0,3.9115,3.9117,0,0,0,0,0,0,0,0,3.8882,3.8893,3.8981,3.8982,3.8981,3.9032,3.9028,3.911,3.9025,3.9007,3.9017,3.9013,3.9072,3.9078,3.9099,3.9199,3.9202,3.9115,3.9119,3.9121,3.9123,0,0,0,0,0,0,0,3.8877,3.889,3.9021,3.8983,3.8983,3.897,3.8978,3.9043,3.9056,3.9008,3.9005,3.9015,3.9071,3.9094,3.91,3.9203,3.9115,3.912,3.9124,3.9126,3.9384,3.9387,0,0,0,0,0,0,3.8873,3.8886,3.9018,3.9023,3.8923,3.8976,3.8985,3.9019,3.9055,3.9058,3.9017,3.9013,3.9085,3.9094,3.9103,3.9219,3.9121,3.9126,3.913,3.9381,3.9385,3.9389,0,0,0,0,0,0,3.887,3.8886,3.9016,3.8954,3.8969,3.8983,3.9021,3.9022,3.9044,3.9062,3.9064,3.9038,3.9083,3.9095,3.9172,3.9221,3.9129,3.9134,3.9377,3.9382,3.9387,3.9453,0,0,0,0,0,0,3.8864,3.8884,3.8923,3.8955,3.8973,3.9086,3.9024,3.9025,3.9055,3.9049,3.9082,3.9085,3.9081,3.9164,3.9178,3.9227,3.9139,3.9372,3.9379,3.9385,3.9447,3.946,3.9471,0,0,0,0,0,3.8858,3.8939,3.8926,3.8942,3.9022,3.9089,3.9099,3.9094,3.9059,3.9097,3.9108,3.9083,3.9213,3.9172,3.9188,3.9239,3.9369,3.9377,3.9385,3.9441,3.9457,3.9471,0,0,0,0,0,0,3.8912,3.8943,3.8928,3.9022,3.9053,3.9081,3.9129,3.9112,3.9153,3.9146,3.9137,3.9145,3.9226,3.924,3.9194,3.9335,3.9285,3.9297,3.9323,3.9339,3.9351,3.9345,3.9144,0,0,0,0,0,3.8935,3.8988,3.9011,3.9092,3.9108,3.9116,3.9145,3.9139,3.917,3.9183,3.92,3.923,3.9277,3.9309,3.9353,3.9448,3.9454,3.9491,3.9503,3.9513,3.9523,3.9572,3.9589,3.9414,3.9414,3.9413,0,0,3.8983,3.9006,3.904,3.9103,3.9126,3.918,3.9127,3.9187,3.9225,3.9191,3.9266,3.9279,3.9312,3.9399,3.9437,3.9413,3.9572,3.9523,3.9531,3.9535,3.9582,3.9598,3.9613,3.9419,3.9418,3.9417,0,0,3.9097,3.9121,3.9189,3.9213,3.9249,3.9254,3.927,3.9301,3.9308,3.9383,3.9358,3.9403,3.9486,3.951,3.9533,3.9654,3.9632,3.9668,3.9732,3.978,3.9794,3.9806,3.9848,3.9863,3.9678,3.9678,3.9678,0,3.9151,3.9232,3.9226,3.9287,3.9315,3.9287,3.9355,3.9378,3.9427,3.9446,3.9418,3.9519,3.954,3.963,3.9659,3.968,3.9696,3.9664,3.9793,3.9805,3.9816,3.9856,3.9871,3.9682,3.9681,3.9681,3.9681,0,3.9296,3.9352,3.9403,3.9451,3.9484,3.9549,3.9551,3.9585,3.9575,3.9582,3.9657,3.9681,3.9729,3.975,3.9741,3.9839,3.9822,3.9794,3.9743,3.9837,3.9874,3.9889,3.9688,3.9686,3.9685,3.9684,0,0,3.9447,3.949,3.9509,3.953,3.9566,3.9609,3.967,3.9718,3.9747,3.978,3.9831,3.99,3.9874,3.99,3.9893,3.9935,4.0028,3.9901,3.9902,3.9923,4.0135,4.0155,4.0173,4.0013,4.0016,4.0019,4.0131,0,3.9563,3.9672,3.9668,3.9769,3.982,3.9793,3.9846,3.9874,3.9881,3.9924,3.9931,3.998,3.9943,3.9958,3.9998,4.0008,4.007,4.0,4.0059,4.0061,4.0051,4.0193,4.0215,4.0321,4.0146,4.0148,4.015,0,3.9712,3.9751,3.9858,3.9886,3.9907,3.9955,3.9997,4.0039,4.0068,4.0071,4.0099,4.0085,4.0146,4.0094,4.0176,4.0128,4.0152,4.016,4.0164,4.0169,4.0111,4.0201,4.0354,4.037,4.0173,4.0171,4.017,0,3.981,3.9889,3.9963,3.9982,4.0016,4.005,4.0066,4.0092,4.012,4.0157,4.0175,4.0217,4.0241,4.0273,4.027,4.0233,4.0353,4.0301,4.0355,4.0355,4.0382,4.038,4.0541,4.0398,4.0398,4.0398,4.0397,0,3.9939,4.0005,4.0007,4.0053,4.0125,4.0118,4.0189,4.0201,4.0225,4.027,4.0249,4.0292,4.0286,4.0329,4.0326,4.0394,4.0405,4.0407,4.0405,4.0409,4.0408,4.0424,4.0416,4.0402,4.0401,4.04,4.0399,0,4.0061,4.0065,4.0143,4.0169,4.0177,4.0229,4.025,4.0292,4.0297,4.0355,4.0368,4.0376,4.0425,4.0425,4.0481,4.0479,4.0561,4.0552,4.0552,4.0549,4.0603,4.0597,4.0779,4.0801,4.0645,4.0646,4.0648,0,4.0143,4.0193,4.0224,4.0253,4.0271,4.0319,4.0347,4.0342,4.0372,4.0409,4.0446,4.0493,4.053,4.0609,4.0618,4.066,4.0651,4.0712,4.0657,4.0658,4.0651,4.0647,4.0652,4.0722,4.0724,4.0725,4.0727,0,4.0287,4.0286,4.0329,4.0372,4.0407,4.044,4.0471,4.0496,4.0494,4.0529,4.0579,4.0608,4.0664,4.071,4.075,4.0764,4.0745,4.0744,4.0758,4.0761,4.0759,4.076,4.058,4.0739,4.0738,4.0737,4.0736,4.0736,4.039,4.0433,4.0461,4.0509,4.0531,4.056,4.06,4.061,4.0652,4.0698,4.0692,4.0748,4.0773,4.0825,4.0843,4.0885,4.0863,4.0885,4.089,4.0895,4.09,4.0753,4.0892,4.0892,4.0891,4.0891,4.0891,0,4.0532,4.0549,4.0593,4.0637,4.0673,4.0652,4.0685,4.0717,4.0766,4.0792,4.0829,4.0885,4.093,4.0943,4.0985,4.1016,4.1008,4.1027,4.1024,4.1027,4.0918,4.0901,4.1033,4.1033,4.1033,4.1033,4.1032,4.1032,4.0611,4.0681,4.0683,4.0764,4.0779,4.0834,4.0854,4.088,4.09,4.0965,4.1002,4.101,4.103,4.1073,4.1112,4.1115,4.1131,4.1154,4.1152,4.105,4.1035,4.1022,4.1005,4.1157,4.1158,4.1258,4.1259,4.126]}]]